#datint,netname,site,siteID,timestamp,IntT,BattV,AirT2,AirT,AirT_Avg,AirT_Max,AirT_Min,RH_Avg,RH_Max,RH_Min,EA_Avg,Td_Avg,Td_Max,Td_Min,WindS_Smp,WindS_Avg,WindD_Avg,WindD_SD,WindS_Max,ETo,ETr,SoilT4,SoilT8,SoilVWC8,SolarW_Avg,wetstate_Avg,wetT_Avg,Precip_accum,Precip_WPG,Precip_TB
15min,AgWx,beryljct,423,26JUN2018:00:00:00,71.2,13.03,66.8,66.4,67.0,68.1,66.0,27,29,25,0.636,32.0,33.0,30.4,5.59,6.4,183,4.8,7.8,0.00061,0.00085,79.3,77.5,12,0,0,64.9,13.84,0.00,0.00
15min,AgWx,beryljct,423,26JUN2018:00:15:00,69.6,13.01,66.7,66.9,66.6,67.8,65.4,27,31,24,0.568,31.2,34.1,29.2,6.642,6.7,181,7.2,8.3,0.00063,0.00088,79.1,77.5,12,0,0,64.5,13.85,0.00,0.00
15min,AgWx,beryljct,423,26JUN2018:00:30:00,68.9,13.01,68.0,67.7,67.8,69.2,66.4,24,27,22,0.566,29.9,31.4,28.7,6.883,7.2,181,5.8,8.6,0.00072,0.00100,78.8,77.5,12,0,0,65.7,13.85,0.00,0.00
15min,AgWx,beryljct,423,26JUN2018:00:45:00,68.4,13,67.8,68.1,67.7,68.1,67.0,24,26,22,0.516,29.1,31.5,27.4,6.072,6.9,176,9.4,9.0,0.00070,0.00097,78.4,77.4,12,0,0,65.5,13.85,0.00,0.00
15min,AgWx,beryljct,423,26JUN2018:01:00:00,67.8,12.98,66.0,65.7,66.2,68.0,65.2,24,26,22,0.526,28.5,29.4,27.2,4.735,5.7,178,6.1,7.0,0.00055,0.00078,78.1,77.3,12,0,0,63.9,13.85,0.00,0.00
15min,AgWx,beryljct,423,26JUN2018:01:15:00,66.7,12.96,62.8,62.9,63.1,66.0,60.3,32,42,24,0.626,32.8,37.4,28.0,1.337,2.4,60,83,5.3,0.00004,0.00011,77.8,77.3,12,0,0,60.7,13.85,0.00,0.00
15min,AgWx,beryljct,423,26JUN2018:01:30:00,65.5,12.96,65.1,65.9,64.6,66.0,62.4,28,34,24,0.577,30.6,33.8,28.3,1.622,2.1,50,25,3.6,0.00001,0.00007,77.6,77.2,12,0,0,60.5,13.85,0.00,0.00
15min,AgWx,beryljct,423,26JUN2018:01:45:00,64.6,12.97,65.0,65.4,64.8,65.9,63.6,30,34,25,0.544,32.5,35.6,29.1,1.008,1.5,287,63,4.4,-0.00011,-0.00011,77.2,77.1,12,0,0,60.4,13.85,0.00,0.00
15min,AgWx,beryljct,423,26JUN2018:02:00:00,64.2,12.96,66.5,65.3,66.4,70.4,63.0,27,38,19,0.681,31.1,38.0,24.8,1.798,1.6,209,38,5.2,-0.00010,-0.00010,77.0,77.1,12,0,0,60.9,13.85,0.00,0.00
15min,AgWx,beryljct,423,26JUN2018:02:15:00,64.0,12.95,64.8,63.7,65.0,66.9,63.2,27,35,20,0.681,30.0,36.3,24.2,4.099,3.4,198,17,4.6,0.00022,0.00037,76.6,77.0,12,0,0,61.7,13.85,0.00,0.00
15min,AgWx,beryljct,423,26JUN2018:02:30:00,63.7,12.95,65.8,64.8,65.6,68.0,63.3,23,33,18,0.503,26.2,33.6,23.3,4.713,3.4,184,17,4.7,0.00025,0.00041,76.4,76.9,12,0,0,61.8,13.85,0.00,0.00
15min,AgWx,beryljct,423,26JUN2018:02:45:00,63.5,12.94,68.4,67.3,67.9,69.7,64.1,21,27,19,0.511,26.7,32.6,24.5,1.206,3.6,169,8.4,5.1,0.00030,0.00049,76.1,76.8,12,0,0,63.5,13.85,0.00,0.00
15min,AgWx,beryljct,423,26JUN2018:03:00:00,62.9,12.93,63.4,66.7,63.5,67.4,59.5,32,47,22,0.487,32.0,39.6,26.5,4.472,0.4,125,12,4.5,-0.00037,-0.00055,75.8,76.7,12,0,0,58.9,13.85,0.00,0.00
15min,AgWx,beryljct,423,26JUN2018:03:15:00,62.7,12.92,64.0,62.3,64.3,67.3,60.3,28,40,20,0.506,29.5,37.1,25.2,2.565,3.5,166,13,5.3,0.00024,0.00040,75.5,76.6,12,0,0,60.4,13.85,0.00,0.00
15min,AgWx,beryljct,423,26JUN2018:03:30:00,62.0,12.92,63.9,65.9,63.2,65.9,60.7,24,35,21,0.464,26.0,33.7,23.9,2.85,1.3,195,27,3.7,-0.00016,-0.00019,75.2,76.5,12,0,0,58.4,13.86,0.00,0.00
15min,AgWx,beryljct,423,26JUN2018:03:45:00,61.5,12.93,66.6,67.1,66.4,68.5,64.7,24,32,20,0.504,28.7,35.7,24.9,2.477,2.8,128,3.6,5.7,0.00014,0.00026,74.9,76.4,12,0,0,60.6,13.86,0.00,0.00
15min,AgWx,beryljct,423,26JUN2018:04:00:00,60.6,12.91,60.6,60.0,61.2,66.9,59.3,35,42,26,0.629,33.6,39.2,28.0,3.705,3.2,171,7.5,4.7,0.00014,0.00025,74.6,76.3,12,0,0,59.1,13.86,0.00,0.00
15min,AgWx,beryljct,423,26JUN2018:04:15:00,59.7,12.92,61.7,64.5,61.1,64.5,58.3,30,43,22,0.463,29.1,36.3,25.1,3.836,3.7,165,7.1,4.5,0.00023,0.00038,74.3,76.2,12,0,0,58.1,13.86,0.00,0.00
15min,AgWx,beryljct,423,26JUN2018:04:30:00,59.3,12.9,59.2,54.9,60.2,65.8,54.7,33,48,21,0.524,30.1,39.9,25.1,4.56,4.9,295,82,7.3,0.00035,0.00051,74.1,76.1,12,0,0,58.0,13.86,0.00,0.00
15min,AgWx,beryljct,423,26JUN2018:04:45:00,58.5,12.91,58.0,58.1,57.4,58.8,54.9,36,43,29,0.637,30.8,35.0,25.2,0,2.3,300,28,4.6,0.00001,0.00006,73.8,76.0,12,0,0,54.3,13.86,0.00,0.00
15min,AgWx,beryljct,423,26JUN2018:05:00:00,58.1,12.9,61.7,62.3,61.0,62.4,58.2,33,38,28,0.540,31.3,33.2,28.7,4.735,2.0,230,37,5.0,-0.00004,-0.00002,73.5,75.9,12,0,0,55.1,13.86,0.00,0.00
15min,AgWx,beryljct,423,26JUN2018:05:15:00,58.0,12.9,57.7,55.5,58.3,62.2,55.5,37,46,27,0.665,31.7,35.9,28.1,0,2.1,188,2.5,4.9,-0.00002,0.00002,73.3,75.7,12,0,0,55.9,13.86,0.00,0.00
15min,AgWx,beryljct,423,26JUN2018:05:30:00,57.3,12.88,56.0,56.0,55.8,56.6,54.6,42,48,36,0.620,33.0,35.6,29.5,0.811,0.4,193,0.5,1.3,0.00007,0.00011,73.0,75.6,12,0,0,51.9,13.86,0.00,0.00
15min,AgWx,beryljct,423,26JUN2018:05:45:00,56.6,12.89,58.7,62.6,57.7,62.6,55.5,40,51,25,0.484,32.9,37.9,26.3,0,0.3,220,9.8,2.5,0.00007,0.00011,72.8,75.5,12,0,0,52.6,13.86,0.00,0.00
15min,AgWx,beryljct,423,26JUN2018:06:00:00,56.3,12.9,58.5,56.7,58.9,63.0,55.6,36,48,24,0.603,31.2,37.1,25.8,3.486,1.1,191,28,3.5,0.00021,0.00037,72.6,75.4,12,0,0,54.6,13.86,0.00,0.00
15min,AgWx,beryljct,423,26JUN2018:06:15:00,55.8,12.89,54.0,55.3,54.1,56.8,51.6,42,52,34,0.562,31.4,35.5,27.9,6.577,5.0,171,7.6,6.6,0.00070,0.00122,72.3,75.3,12,3,0,53.4,13.86,0.00,0.00
15min,AgWx,beryljct,423,26JUN2018:06:30:00,55.7,12.9,56.4,57.8,55.8,57.8,54.8,35,37,32,0.536,28.6,29.6,28.0,6.774,7.1,173,4.2,9.0,0.00113,0.00193,72.1,75.1,12,14,0,55.8,13.86,0.00,0.00
15min,AgWx,beryljct,423,26JUN2018:06:45:00,56.7,12.91,60.6,61.3,60.0,61.3,57.9,33,34,31,0.581,30.5,32.2,28.6,7.19,6.8,177,5.0,8.0,0.00137,0.00224,71.8,75.0,12,41,0,62.1,13.86,0.00,0.00
15min,AgWx,beryljct,423,26JUN2018:07:00:00,58.4,12.93,63.0,64.9,62.5,64.9,61.2,32,34,30,0.626,32.3,33.2,31.2,5.437,6.1,175,4.5,7.5,0.00150,0.00235,71.6,74.9,12,76,0,67.3,13.86,0.00,0.00
15min,AgWx,beryljct,423,26JUN2018:07:15:00,61.0,12.9,66.1,61.9,66.2,67.9,61.8,31,47,26,0.844,33.9,42.9,31.4,5.305,4.4,160,17,5.8,0.00148,0.00219,71.4,74.8,12,114,0,74.8,13.85,0.00,0.00
15min,AgWx,beryljct,423,26JUN2018:07:30:00,62.2,12.91,58.8,59.8,59.0,61.9,57.0,51,57,45,0.815,40.9,42.2,39.2,5.875,6.1,133,12,8.1,0.00146,0.00207,71.2,74.6,12,156,0,71.0,13.85,0.00,0.00
15min,AgWx,beryljct,423,26JUN2018:07:45:00,63.2,12.94,64.9,66.6,64.2,66.6,60.0,36,47,32,0.705,36.8,39.8,35.0,5.48,5.3,167,6.2,7.7,0.00191,0.00269,71.0,74.5,12,199,0,76.8,13.85,0.00,0.00
15min,AgWx,beryljct,423,26JUN2018:08:00:00,65.2,12.96,66.0,66.2,66.0,66.9,64.6,40,50,32,0.879,40.7,45.5,35.9,5.305,5.4,137,10,6.4,0.00217,0.00295,70.8,74.4,12,247,0,81.4,13.85,0.00,0.00
15min,AgWx,beryljct,423,26JUN2018:08:15:00,67.0,12.97,66.4,67.6,66.3,67.6,65.2,46,51,39,1.044,44.6,46.7,40.3,5.722,5.8,141,5.0,6.8,0.00241,0.00318,70.7,74.2,12,298,0,83.0,13.85,0.00,0.00
15min,AgWx,beryljct,423,26JUN2018:08:30:00,69.0,12.98,69.0,70.3,68.7,70.3,67.6,51,60,43,1.412,50.1,55.1,44.8,3.266,3.7,126,6.1,5.7,0.00251,0.00305,70.6,74.1,12,349,0,91.6,13.85,0.00,0.00
15min,AgWx,beryljct,423,26JUN2018:08:45:00,71.6,13.02,72.4,73.7,72.1,73.7,70.2,51,60,47,1.473,53.0,58.4,50.6,2.938,3.6,139,7.8,4.4,0.00292,0.00350,70.6,74.0,12,400,0,97.4,13.85,0.00,0.00
15min,AgWx,beryljct,423,26JUN2018:09:00:00,74.3,13.13,75.0,75.0,74.9,76.0,73.7,43,55,33,0.992,50.8,57.1,44.4,2.784,4.4,152,89,8.3,0.00348,0.00426,70.6,73.9,12,450,0,99.5,13.85,0.00,0.00
15min,AgWx,beryljct,423,26JUN2018:09:15:00,76.3,13.24,73.9,75.0,74.1,76.3,72.9,41,51,30,1.097,48.7,54.9,42.4,3.858,3.8,320,19,5.6,0.00371,0.00446,70.6,73.8,12,497,0,98.8,13.84,0.00,0.00
15min,AgWx,beryljct,423,26JUN2018:09:30:00,78.3,13.37,77.8,79.7,77.4,79.7,75.1,28,39,21,0.811,41.8,49.4,36.3,2.455,3.5,357,15,5.0,0.00422,0.00510,70.7,73.7,12,548,0,102.4,13.84,0.00,0.00
15min,AgWx,beryljct,423,26JUN2018:09:45:00,80.9,13.57,79.7,81.1,79.8,81.1,78.8,32,47,24,0.909,47.2,57.8,39.4,2.302,2.6,325,31,4.6,0.00446,0.00518,70.8,73.5,12,595,0,110.2,13.83,0.00,0.00
15min,AgWx,beryljct,423,26JUN2018:10:00:00,83.5,13.74,82.3,81.9,82.4,84.0,81.2,27,40,17,1.507,45.0,55.6,33.9,1.973,1.5,177,56,5.8,0.00471,0.00531,71.0,73.5,12,642,0,120.6,13.83,0.00,0.00
15min,AgWx,beryljct,423,26JUN2018:10:15:00,85.6,13.86,84.4,85.9,84.3,85.9,82.0,22,39,15,0.617,41.3,54.8,32.3,1.622,5.0,191,16,8.5,0.00572,0.00703,71.1,73.4,12,687,0,114.6,13.83,0.00,0.00
15min,AgWx,beryljct,423,26JUN2018:10:30:00,87.3,13.79,84.9,84.4,85.3,86.7,83.5,22,33,13,0.899,41.7,52.4,30.2,4.757,4.4,171,32,18.3,0.00596,0.00720,71.4,73.3,12,730,0,116.4,13.82,0.00,0.00
15min,AgWx,beryljct,423,26JUN2018:10:45:00,87.5,13.87,81.7,82.6,82.1,84.4,80.9,33,41,23,1.054,49.8,55.3,42.5,8.55,7.0,140,14,12.1,0.00632,0.00781,71.6,73.2,12,771,0,107.2,13.82,0.00,0.00
15min,AgWx,beryljct,423,26JUN2018:11:00:00,86.9,13.89,81.4,81.9,81.7,82.4,81.2,33,37,29,1.251,49.9,52.6,46.5,7.607,8.8,141,8.0,11.2,0.00673,0.00846,71.9,73.2,12,810,0,102.7,13.83,0.00,0.00
15min,AgWx,beryljct,423,26JUN2018:11:15:00,86.6,13.84,82.6,82.8,82.8,83.8,81.9,31,38,21,1.219,48.5,53.9,39.6,6.27,8.7,141,12,12.7,0.00708,0.00889,72.3,73.1,12,846,0,104.0,13.82,0.00,0.00
15min,AgWx,beryljct,423,26JUN2018:11:30:00,87.0,13.82,83.6,84.7,83.7,84.7,82.7,30,35,25,1.039,48.9,53.1,44.8,9.38,7.5,152,8.8,10.1,0.00722,0.00891,72.7,73.1,12,878,0,107.2,13.82,0.00,0.00
15min,AgWx,beryljct,423,26JUN2018:11:45:00,87.7,13.8,85.4,86.9,85.4,86.9,84.4,24,31,19,1.128,44.6,50.3,39.4,7.125,7.8,161,11,11.3,0.00767,0.00955,73.2,73.1,12,907,0,109.3,13.82,0.00,0.00
15min,AgWx,beryljct,423,26JUN2018:12:00:00,89.0,13.81,88.2,87.4,88.4,89.6,86.8,18,27,13,0.977,39.4,49.3,31.0,5.196,7.6,185,17,12.5,0.00814,0.01019,73.7,73.1,12,937,0,113.4,13.82,0.00,0.00
15min,AgWx,beryljct,423,26JUN2018:12:15:00,90.3,13.73,88.5,88.9,88.6,89.5,86.5,18,29,12,0.635,39.9,50.5,30.1,8.18,7.7,195,18,14.4,0.00833,0.01039,74.1,73.1,12,964,0,115.0,13.82,0.00,0.00
15min,AgWx,beryljct,423,26JUN2018:12:30:00,90.9,13.8,88.3,87.9,88.7,89.9,87.3,17,28,12,0.849,38.0,50.4,29.9,8.57,9.0,170,21,16.2,0.00869,0.01103,74.7,73.2,12,985,0,111.1,13.82,0.00,0.00
15min,AgWx,beryljct,423,26JUN2018:12:45:00,91.3,13.37,88.9,88.6,89.1,90.3,88.0,18,23,12,0.815,39.2,46.0,29.8,7.651,8.8,205,20,15.4,0.00877,0.01108,75.2,73.2,12,1001,0,113.0,13.82,0.00,0.00
15min,AgWx,beryljct,423,26JUN2018:13:00:00,91.7,13.32,89.6,90.4,89.8,90.8,88.7,17,22,12,0.771,39.3,45.6,30.5,12.04,10.1,193,12,17.7,0.00910,0.01166,75.8,73.3,12,1014,0,112.8,13.82,0.00,0.00
15min,AgWx,beryljct,423,26JUN2018:13:15:00,92.3,13.33,89.8,90.0,90.1,90.9,89.4,15,20,11,0.679,36.8,43.6,28.3,11.22,12.2,193,15,19.7,0.00953,0.01251,76.4,73.4,12,1021,0,109.7,13.82,0.00,0.00
15min,AgWx,beryljct,423,26JUN2018:13:30:00,92.4,13.33,89.0,88.7,89.4,91.0,88.3,17,22,12,0.811,38.0,44.5,29.9,13.79,11.9,203,17,18.1,0.00944,0.01232,77.0,73.5,12,1028,0,109.6,13.82,0.00,0.00
15min,AgWx,beryljct,423,26JUN2018:13:45:00,92.4,13.41,89.5,91.1,89.6,91.1,88.6,17,21,12,0.730,38.5,44.2,31.1,11.77,10.5,201,18,19.0,0.00926,0.01192,77.5,73.6,12,1028,0,110.3,13.82,0.00,0.00
15min,AgWx,beryljct,423,26JUN2018:14:00:00,92.6,13.33,89.1,88.8,89.7,91.1,88.4,17,23,12,0.906,38.5,47.7,30.2,6.379,10.9,209,15,22.4,0.00931,0.01203,78.1,73.7,12,1025,0,109.0,13.82,0.00,0.00
15min,AgWx,beryljct,423,26JUN2018:14:15:00,92.5,13.32,88.9,89.4,89.2,90.1,88.5,18,24,13,0.761,39.3,48.1,31.9,11.84,10.2,217,15,16.7,0.00913,0.01168,78.7,73.9,12,1024,0,109.0,13.82,0.00,0.00
15min,AgWx,beryljct,423,26JUN2018:14:30:00,92.4,13.32,89.0,91.0,89.2,91.0,88.4,19,26,14,0.709,41.0,49.8,34.7,15.61,9.4,195,27,23.0,0.00889,0.01128,79.3,74.0,12,1010,0,109.4,13.82,0.00,0.00
15min,AgWx,beryljct,423,26JUN2018:14:45:00,92.9,13.31,90.3,89.3,90.8,92.3,89.3,16,24,11,0.943,37.8,47.7,29.2,10.54,11.1,199,20,18.8,0.00930,0.01211,79.8,74.2,12,1002,0,108.3,13.82,0.00,0.00
15min,AgWx,beryljct,423,26JUN2018:15:00:00,92.7,13.31,88.8,89.8,89.0,89.9,88.2,17,22,12,0.610,38.5,44.9,30.9,17.52,11.8,215,19,17.5,0.00906,0.01186,80.3,74.4,12,982,0,105.4,13.82,0.00,0.00
15min,AgWx,beryljct,423,26JUN2018:15:15:00,92.6,13.31,89.2,89.0,89.6,91.0,88.8,16,20,13,0.749,37.9,43.2,31.6,14.32,11.8,212,16,18.8,0.00904,0.01191,80.9,74.5,12,966,0,105.5,13.82,0.00,0.00
15min,AgWx,beryljct,423,26JUN2018:15:30:00,92.3,13.29,88.5,88.9,88.7,89.4,87.7,18,24,13,0.772,39.1,46.5,32.1,13.85,13.0,222,14,18.8,0.00893,0.01189,81.3,74.7,12,941,0,103.2,13.82,0.00,0.00
15min,AgWx,beryljct,423,26JUN2018:15:45:00,92.3,13.31,89.2,89.0,89.4,90.3,88.7,16,20,14,0.742,37.4,42.9,33.7,12.63,13.3,209,14,19.3,0.00891,0.01198,81.7,74.9,12,917,0,102.2,13.82,0.00,0.00
15min,AgWx,beryljct,423,26JUN2018:16:00:00,92.4,13.27,89.4,89.3,89.6,90.5,89.2,15,19,9.5,0.844,35.3,41.7,25.1,8.44,13.1,207,12,20.7,0.00871,0.01181,82.0,75.1,12,882,0,102.5,13.82,0.00,0.00
15min,AgWx,beryljct,423,26JUN2018:16:15:00,92.8,13.29,90.2,91.1,90.3,91.1,89.2,15,19,11,0.637,35.6,42.6,30.0,15.32,13.2,191,16,21.5,0.00852,0.01161,82.3,75.3,12,846,0,101.5,13.82,0.00,0.00
15min,AgWx,beryljct,423,26JUN2018:16:30:00,93.3,13.27,89.6,89.3,90.1,91.2,89.3,14,17,11,0.576,34.5,39.5,28.2,14.32,14.4,193,16,22.0,0.00844,0.01174,82.5,75.5,12,804,0,100.1,13.82,0.00,0.00
15min,AgWx,beryljct,423,26JUN2018:16:45:00,93.1,13.27,88.8,89.5,89.0,90.1,88.1,15,20,13,0.749,36.0,42.1,31.1,12.28,12.2,211,20,18.6,0.00746,0.01030,82.7,75.7,12,731,0,98.2,13.82,0.00,0.00
15min,AgWx,beryljct,423,26JUN2018:17:00:00,93.1,13.28,88.8,89.9,89.0,90.5,88.2,15,19,12,0.573,36.1,40.7,30.4,16.27,11.5,213,21,21.4,0.00735,0.01005,82.9,75.9,12,735,0,97.6,13.82,0.00,0.00
15min,AgWx,beryljct,423,26JUN2018:17:15:00,93.3,13.28,90.0,90.2,90.2,90.7,89.3,13,17,10,0.651,33.4,38.6,26.7,14.69,12.6,192,11,18.7,0.00737,0.01036,83.2,76.0,12,688,0,96.8,13.82,0.00,0.00
15min,AgWx,beryljct,423,26JUN2018:17:30:00,93.3,13.29,89.1,89.3,89.5,90.4,88.2,14,19,10,0.764,33.5,40.7,26.7,9.4,12.6,207,12,20.9,0.00689,0.00982,83.4,76.2,12,625,0,96.8,13.82,0.00,0.00
15min,AgWx,beryljct,423,26JUN2018:17:45:00,93.1,13.27,89.2,89.5,89.3,90.5,87.8,14,16,11,0.630,33.3,38.1,28.0,12.43,11.0,196,23,19.2,0.00640,0.00902,83.6,76.4,12,603,0,95.9,13.82,0.00,0.00
15min,AgWx,beryljct,423,26JUN2018:18:00:00,93.0,13.25,89.4,89.0,89.6,90.4,88.9,12,16,9.4,0.624,30.8,37.6,24.8,9.1,11.4,195,14,18.8,0.00623,0.00897,83.7,76.6,12,557,0,94.9,13.82,0.00,0.00
15min,AgWx,beryljct,423,26JUN2018:18:15:00,92.8,13.25,88.8,88.8,89.1,89.8,88.4,13,17,9.5,0.651,31.7,37.5,24.7,12.98,10.1,198,12,16.0,0.00554,0.00797,83.9,76.7,12,507,0,94.0,13.82,0.00,0.00
15min,AgWx,beryljct,423,26JUN2018:18:30:00,92.3,13.28,87.8,86.3,88.2,89.2,86.3,13,22,9.1,0.744,31.3,43.8,23.0,10.35,10.7,208,18,16.6,0.00530,0.00781,84.1,76.9,12,459,0,91.7,13.82,0.00,0.00
15min,AgWx,beryljct,423,26JUN2018:18:45:00,91.6,13.3,87.8,88.0,87.8,89.7,86.0,15,21,11,0.583,33.5,41.2,27.0,15.39,10.6,206,19,17.0,0.00485,0.00724,84.2,77.1,12,407,0,90.6,13.83,0.00,0.00
15min,AgWx,beryljct,423,26JUN2018:19:00:00,91.1,13.25,87.5,87.4,87.7,88.5,86.9,14,17,11,0.535,31.8,36.6,26.3,12.69,10.9,204,9.1,17.2,0.00458,0.00704,84.3,77.2,12,356,0,89.7,13.83,0.00,0.00
15min,AgWx,beryljct,423,26JUN2018:19:15:00,90.5,13.22,87.4,88.0,87.6,88.4,86.6,13,16,9.9,0.465,29.8,35.3,24.2,16.77,10.4,200,9.3,18.6,0.00415,0.00651,84.4,77.4,12,309,0,88.3,13.83,0.00,0.00
15min,AgWx,beryljct,423,26JUN2018:19:30:00,89.9,13.2,86.4,84.3,86.9,88.2,84.3,13,20,9.7,0.725,30.1,38.8,24.0,9.45,10.0,206,8.8,16.3,0.00372,0.00600,84.4,77.5,12,260,0,87.2,13.83,0.00,0.00
15min,AgWx,beryljct,423,26JUN2018:19:45:00,89.0,13.18,85.5,84.5,85.7,86.8,84.5,14,17,11,0.668,30.9,35.3,26.5,6.511,9.3,212,12,13.8,0.00313,0.00518,84.4,77.7,12,210,0,85.5,13.83,0.00,0.00
15min,AgWx,beryljct,423,26JUN2018:20:00:00,88.0,13.18,84.6,84.4,84.8,85.2,84.3,14,17,13,0.614,30.3,34.1,28.1,5.722,8.1,212,8.4,12.0,0.00247,0.00426,84.4,77.8,12,162,0,83.8,13.83,0.00,0.00
15min,AgWx,beryljct,423,26JUN2018:20:15:00,86.9,13.14,83.4,83.3,83.6,84.3,82.6,15,17,12,0.612,30.4,33.5,26.5,4.735,6.9,209,8.0,10.1,0.00141,0.00198,84.3,77.9,12,120,0,81.6,13.83,0.00,0.00
15min,AgWx,beryljct,423,26JUN2018:20:30:00,85.4,13.15,82.0,81.6,82.4,83.2,81.5,15,17,13,0.541,30.2,33.8,27.5,6.555,6.8,215,7.5,9.3,0.00126,0.00178,84.2,78.0,12,83,0,79.6,13.83,0.00,0.00
15min,AgWx,beryljct,423,26JUN2018:20:45:00,83.7,13.14,79.9,79.5,80.3,81.6,79.3,15,17,14,0.523,29.2,30.8,28.2,6.862,6.5,218,5.1,7.8,0.00106,0.00152,84.0,78.1,12,47,0,77.3,13.83,0.00,0.00
15min,AgWx,beryljct,423,26JUN2018:21:00:00,81.6,13.13,78.9,78.8,79.0,79.5,78.4,16,17,14,0.513,28.3,29.9,25.7,6.05,6.5,223,4.5,8.1,0.00095,0.00136,83.8,78.2,12,13,0,76.1,13.83,0.00,0.00
15min,AgWx,beryljct,423,26JUN2018:21:15:00,79.4,13.13,77.3,78.0,77.4,78.7,76.5,17,19,13,0.440,28.6,32.2,23.5,5.13,5.5,216,4.0,6.8,0.00074,0.00109,83.5,78.3,12,3,0,73.6,13.84,0.00,0.00
15min,AgWx,beryljct,423,26JUN2018:21:30:00,77.6,13.11,78.7,78.4,78.5,79.9,77.2,13,16,11,0.403,24.0,28.3,20.6,5.919,5.2,208,2.8,6.0,0.00071,0.00107,83.2,78.3,12,0,0,73.5,13.84,0.00,0.00
15min,AgWx,beryljct,423,26JUN2018:21:45:00,76.2,13.09,77.6,77.5,77.7,78.9,76.8,14,16,11,0.438,24.4,28.5,20.5,6.116,5.4,215,4.5,6.1,0.00073,0.00110,82.9,78.4,12,0,0,73.3,13.84,0.00,0.00
15min,AgWx,beryljct,423,26JUN2018:22:00:00,75.0,13.1,75.7,77.2,75.7,77.8,74.2,16,20,13,0.471,26.7,31.2,21.7,6.094,5.9,216,6.9,6.6,0.00076,0.00112,82.6,78.4,12,0,0,72.1,13.84,0.00,0.00
15min,AgWx,beryljct,423,26JUN2018:22:15:00,73.9,13.08,74.3,74.4,74.6,77.2,73.5,17,19,14,0.508,26.7,28.9,24.1,6.292,6.1,203,6.6,7.3,0.00077,0.00111,82.2,78.5,12,0,0,71.0,13.84,0.00,0.00
15min,AgWx,beryljct,423,26JUN2018:22:30:00,72.7,13.08,70.3,70.3,70.7,74.3,67.4,19,29,15,0.411,26.4,34.8,21.5,6.007,6.1,175,19,8.5,0.00071,0.00101,81.9,78.5,12,0,0,68.1,13.84,0.00,0.00
15min,AgWx,beryljct,423,26JUN2018:22:45:00,71.2,13.07,69.5,69.0,69.5,70.3,68.6,16,19,15,0.433,22.0,25.0,20.3,6.094,6.2,178,4.5,7.4,0.00071,0.00101,81.5,78.5,12,0,0,66.6,13.84,0.00,0.00
15min,AgWx,beryljct,423,26JUN2018:23:00:00,70.2,13.07,70.8,69.7,70.6,71.6,69.1,17,18,16,0.418,23.2,24.9,22.0,6.248,6.7,175,4.5,7.6,0.00080,0.00112,81.1,78.5,12,0,0,67.7,13.84,0.00,0.00
15min,AgWx,beryljct,423,26JUN2018:23:15:00,69.6,13.05,69.0,67.7,69.1,69.6,67.7,18,20,17,0.452,23.2,25.1,22.4,5.7,6.7,177,4.1,7.7,0.00076,0.00107,80.7,78.5,12,0,0,66.5,13.84,0.00,0.00
15min,AgWx,beryljct,423,26JUN2018:23:30:00,68.5,13.05,66.3,67.1,66.3,67.9,64.2,21,26,19,0.457,25.5,28.5,23.6,5.678,5.9,182,3.0,6.7,0.00060,0.00086,80.3,78.4,12,0,0,63.5,13.84,0.00,0.00
15min,AgWx,beryljct,423,26JUN2018:23:45:00,67.4,13.04,68.0,69.2,67.7,69.2,66.7,20,23,18,0.436,25.0,27.6,23.2,5.086,5.8,177,3.8,7.0,0.00061,0.00087,80.0,78.4,12,0,0,64.6,13.84,0.00,0.00
15min,AgWx,beryljct,423,27JUN2018:00:00:00,67.3,13.03,70.4,70.7,70.1,70.7,69.1,18,18,17,0.447,24.1,25.4,23.1,6.248,6.5,171,6.7,8.2,0.00075,0.00105,79.6,78.3,12,0,0,67.0,13.84,0.00,0.00
15min,AgWx,beryljct,423,27JUN2018:00:15:00,67.5,13.02,69.9,67.7,70.2,71.3,67.7,19,26,17,0.602,25.7,31.7,23.6,4.516,5.3,165,14,7.1,0.00059,0.00086,79.2,78.3,12,0,0,66.9,13.84,0.00,0.00
15min,AgWx,beryljct,423,27JUN2018:00:30:00,66.6,13.01,61.9,62.3,62.6,67.2,58.9,32,41,26,0.572,32.4,36.2,27.5,4.516,3.5,74,54,5.9,0.00021,0.00034,78.8,78.2,12,0,0,60.2,13.85,0.00,0.00
15min,AgWx,bigpiney,439,26JUN2018:00:00:00,55.2,12.85,48.6,48.6,49.1,51.0,48.5,76,78,69,0.911,41.7,42.3,41.3,4.582,5.3,238,9.3,7.8,-0.00000,0.00002,56.8,53.5,54,0,0,0.0,.,0.00,0.00
15min,AgWx,bigpiney,439,26JUN2018:00:15:00,54.5,12.85,49.1,48.8,48.3,48.8,46.9,80,85,76,0.894,42.3,42.8,41.7,1.995,3.0,292,77,6.5,-0.00011,-0.00013,56.7,53.6,54,0,0,0.0,.,0.00,0.00
15min,AgWx,bigpiney,439,26JUN2018:00:30:00,53.9,12.84,48.9,48.6,48.9,49.5,48.3,75,76,74,0.882,41.4,41.9,41.0,2.17,3.1,303,15,3.9,-0.00009,-0.00010,56.7,53.6,54,0,0,0.0,.,0.00,0.00
15min,AgWx,bigpiney,439,26JUN2018:00:45:00,53.3,12.81,46.2,46.6,47.8,49.1,46.4,78,85,75,0.907,41.4,42.4,40.3,1.556,2.1,247,95,4.9,-0.00016,-0.00020,56.6,53.6,54,0,0,0.0,.,0.00,0.00
15min,AgWx,bigpiney,439,26JUN2018:01:00:00,52.5,12.81,47.8,48.3,47.6,48.9,46.3,80,86,73,0.846,41.7,42.5,40.2,2.981,1.8,272,32,3.0,-0.00018,-0.00024,56.6,53.6,54,0,0,0.0,.,0.00,0.00
15min,AgWx,bigpiney,439,26JUN2018:01:15:00,51.9,12.8,46.8,46.8,47.4,48.4,46.8,76,78,73,0.842,40.1,40.7,39.7,3.617,1.9,257,35,4.4,-0.00016,-0.00021,56.5,53.6,54,0,0,0.0,.,0.00,0.00
15min,AgWx,bigpiney,439,26JUN2018:01:30:00,51.4,12.79,47.0,48.1,47.6,48.8,46.7,77,80,73,0.844,40.8,41.8,40.1,4.779,1.4,238,16,4.8,-0.00020,-0.00027,56.4,53.7,54,0,0,0.0,.,0.00,0.00
15min,AgWx,bigpiney,439,26JUN2018:01:45:00,50.9,12.78,46.4,45.1,45.8,47.9,44.8,78,84,74,0.862,39.4,40.7,39.0,1.118,3.4,230,34,6.8,-0.00009,-0.00009,56.4,53.7,54,0,0,0.0,.,0.00,0.00
15min,AgWx,bigpiney,439,26JUN2018:02:00:00,50.4,12.77,46.0,46.2,46.1,46.7,45.3,82,85,79,0.894,41.1,41.7,40.6,1.82,0.4,281,27,1.8,-0.00027,-0.00041,56.3,53.7,54,0,0,0.0,.,0.00,0.00
15min,AgWx,bigpiney,439,26JUN2018:02:15:00,49.8,12.76,44.0,44.2,45.0,47.0,43.4,84,90,76,0.840,40.4,41.7,38.6,1.337,1.0,195,39,2.5,-0.00023,-0.00032,56.2,53.7,54,0,0,0.0,.,0.00,0.00
15min,AgWx,bigpiney,439,26JUN2018:02:30:00,49.2,12.75,44.4,44.0,43.7,44.4,42.9,85,87,83,0.835,39.3,40.2,38.5,0,0.8,191,9.3,2.3,-0.00024,-0.00035,56.1,53.7,54,0,0,0.0,.,0.00,0.00
15min,AgWx,bigpiney,439,26JUN2018:02:45:00,48.7,12.74,45.1,44.6,44.3,44.8,43.7,84,86,81,0.816,39.7,40.1,39.3,3.025,1.5,29,35,3.5,-0.00020,-0.00027,56.0,53.7,54,0,0,0.0,.,0.00,0.00
15min,AgWx,bigpiney,439,26JUN2018:03:00:00,48.3,12.73,43.6,43.3,43.9,44.8,43.2,84,86,81,0.812,39.4,39.6,39.2,4.297,3.1,305,11,4.7,-0.00012,-0.00015,56.0,53.7,54,0,0,0.0,.,0.00,0.00
15min,AgWx,bigpiney,439,26JUN2018:03:15:00,48.0,12.71,42.6,42.4,43.0,43.4,42.4,87,88,85,0.804,39.4,40.0,38.9,3.025,2.8,245,40,4.2,-0.00014,-0.00017,55.9,53.7,54,0,0,0.0,.,0.00,0.00
15min,AgWx,bigpiney,439,26JUN2018:03:30:00,47.6,12.7,41.8,42.1,42.6,42.7,42.1,87,89,84,0.761,39.1,39.7,37.5,1.798,2.8,192,12,3.6,-0.00014,-0.00017,55.8,53.7,54,0,0,0.0,.,0.00,0.00
15min,AgWx,bigpiney,439,26JUN2018:03:45:00,47.2,12.7,43.5,43.0,42.1,43.0,41.5,87,89,84,0.796,38.6,39.4,37.3,0,1.3,294,40,2.4,-0.00020,-0.00028,55.7,53.7,54,0,0,0.0,.,0.00,0.00
15min,AgWx,bigpiney,439,26JUN2018:04:00:00,46.8,12.67,43.3,42.9,43.0,43.3,42.9,87,90,84,0.834,39.5,40.2,38.5,0,0.1,293,0.1,1.0,-0.00029,-0.00045,55.6,53.8,54,0,0,0.0,.,0.00,0.00
15min,AgWx,bigpiney,439,26JUN2018:04:15:00,46.4,12.68,42.2,42.0,42.5,43.3,41.3,87,89,84,0.783,38.9,40.2,37.6,2.959,1.9,182,7.7,3.6,-0.00018,-0.00024,55.5,53.8,54,0,0,0.0,.,0.00,0.00
15min,AgWx,bigpiney,439,26JUN2018:04:30:00,45.9,12.66,40.5,40.6,41.3,42.1,40.6,84,87,82,0.722,36.9,38.3,36.0,2.85,3.0,215,11,4.0,-0.00012,-0.00014,55.4,53.7,54,0,0,0.0,.,0.00,0.00
15min,AgWx,bigpiney,439,26JUN2018:04:45:00,45.4,12.65,39.8,39.6,40.1,40.6,39.6,87,89,84,0.738,36.5,37.7,35.9,1.25,1.7,206,6.5,2.9,-0.00018,-0.00024,55.3,53.7,54,0,0,0.0,.,0.00,0.00
15min,AgWx,bigpiney,439,26JUN2018:05:00:00,44.9,12.64,39.5,39.6,39.8,40.3,39.5,90,91,88,0.748,37.1,37.7,36.4,2.653,1.9,226,12,3.0,-0.00018,-0.00023,55.3,53.8,54,0,0,0.0,.,0.00,0.00
15min,AgWx,bigpiney,439,26JUN2018:05:15:00,44.5,12.63,39.3,39.7,39.8,40.5,39.2,89,92,86,0.728,36.9,37.9,36.0,2.718,2.2,239,7.8,3.4,-0.00016,-0.00021,55.2,53.7,54,0,0,0.0,.,0.00,0.00
15min,AgWx,bigpiney,439,26JUN2018:05:30:00,44.1,12.63,40.5,39.1,38.8,39.9,38.1,89,91,88,0.733,35.8,37.4,35.0,1.25,2.2,237,14,3.2,-0.00016,-0.00020,55.0,53.7,54,0,0,0.0,.,0.00,0.00
15min,AgWx,bigpiney,439,26JUN2018:05:45:00,43.6,12.6,41.1,40.8,40.5,40.9,39.2,90,92,86,0.747,37.7,38.1,36.8,2.214,1.2,337,21,2.5,-0.00020,-0.00028,55.0,53.7,54,2,0,0.0,.,0.00,0.00
15min,AgWx,bigpiney,439,26JUN2018:06:00:00,43.4,12.62,39.4,39.2,39.8,40.8,39.2,88,89,86,0.717,36.4,37.0,36.0,0.066,0.8,352,10,2.3,-0.00019,-0.00019,54.9,53.7,54,7,0,0.0,.,0.00,0.00
15min,AgWx,bigpiney,439,26JUN2018:06:15:00,43.1,12.63,40.5,40.1,39.5,40.1,39.2,89,89,88,0.750,36.4,37.2,36.0,1.907,1.6,297,16,2.6,-0.00026,-0.00026,54.7,53.7,54,35,0,0.0,.,0.00,0.00
15min,AgWx,bigpiney,439,26JUN2018:06:30:00,43.3,12.65,42.4,42.0,41.1,42.0,40.1,88,89,87,0.787,37.8,38.4,37.1,1.14,1.3,289,10,2.2,-0.00010,-0.00008,54.6,53.7,54,71,0,0.0,.,0.00,0.00
15min,AgWx,bigpiney,439,26JUN2018:06:45:00,43.9,12.66,44.5,44.0,42.9,44.0,42.0,86,87,83,0.812,39.1,39.9,38.4,2.214,1.3,303,16,2.4,0.00010,0.00013,54.5,53.6,54,108,0,0.0,.,0.00,0.00